| time (UTC) | temp C | wind direction | speed KPH | gust KPH | rain 1hr cm | rain 24hr cm | rain mn cm | humidity % | barometer mb |
| 20260504160157 | 22 | 256 | 6.4 | 16.1 | 0.00 | 0.00 | 0.00 | 41 | 1018.1 |
| 20260504151036 | 21 | 343 | 4.8 | 19.3 | 0.00 | 0.00 | 0.00 | 40 | 1018.6 |
| 20260504151022 | 20 | 53 | 3.2 | 17.7 | 0.00 | 0.00 | 0.00 | 40 | 1016.5 |
| 20260504150521 | 20 | 183 | 4.8 | 22.5 | 0.00 | 0.00 | 0.00 | 41 | 1016.5 |
| 20260504141021 | 18 | 353 | 4.8 | 16.1 | 0.00 | 0.00 | 0.00 | 49 | 1016.3 |
| 20260504141017 | 18 | 353 | 3.2 | 12.9 | 0.00 | 0.00 | 0.00 | 48 | 1018.4 |
| 20260504140521 | 17 | 186 | 3.2 | 8.0 | 0.00 | 0.00 | 0.00 | 52 | 1016.3 |
| 20260504130703 | 15 | 136 | 1.6 | 4.8 | 0.00 | 0.00 | 0.00 | 67 | 1018.6 |
| 20260504130525 | 14 | 150 | 1.6 | 9.7 | 0.00 | 0.00 | 0.00 | 66 | 1016.5 |
| 20260504110521 | 3 | 0 | 0.0 | 1.6 | 0.00 | 0.00 | 0.00 | 89 | 1016.3 |
| 20260504110414 | 3 | 129 | 0.0 | 0.0 | 0.00 | 0.00 | 0.00 | 89 | 1018.4 |
| 20260504100521 | 3 | 0 | 0.0 | 0.0 | 0.00 | 0.00 | 0.00 | 89 | 1016.4 |
| 20260504100236 | 3 | 285 | 0.0 | 0.0 | 0.00 | 0.00 | 0.00 | 89 | 1018.5 |
| 20260504090141 | 3 | 285 | 0.0 | 0.0 | 0.00 | 0.00 | 0.00 | 88 | 1018.5 |
| 20260504081544 | 3 | 0 | 0.0 | 0.0 | 0.00 | 0.00 | 0.00 | 88 | 1016.4 |
| 20260504081052 | 3 | 285 | 0.0 | 0.0 | 0.00 | 0.00 | 0.00 | 88 | 1018.4 |
| 20260504081021 | 3 | 0 | 0.0 | 0.0 | 0.00 | 0.00 | 0.00 | 88 | 1016.3 |
| 20260504080522 | 3 | 0 | 0.0 | 0.0 | 0.00 | 0.00 | 0.00 | 88 | 1016.2 |
| 20260504050620 | 6 | 285 | 0.0 | 0.0 | 0.00 | 0.00 | 0.00 | 84 | 1018.6 |
| 20260504050522 | 5 | 0 | 0.0 | 1.6 | 0.00 | 0.00 | 0.00 | 84 | 1016.6 |
| 20260504045642 | 6 | 285 | 0.0 | 0.0 | 0.00 | 0.00 | 0.00 | 84 | 1018.6 |
| 20260504045521 | 5 | 0 | 0.0 | 1.6 | 0.00 | 0.00 | 0.00 | 84 | 1016.5 |
| 20260504045021 | 5 | 0 | 0.0 | 1.6 | 0.00 | 0.00 | 0.00 | 84 | 1016.5 |
| 20260504044651 | 6 | 285 | 0.0 | 0.0 | 0.00 | 0.00 | 0.00 | 84 | 1018.5 |
| 20260504044539 | 5 | 0 | 0.0 | 3.2 | 0.00 | 0.00 | 0.00 | 84 | 1016.5 |
| 20260504044023 | 5 | 285 | 0.0 | 3.2 | 0.00 | 0.00 | 0.00 | 85 | 1016.6 |
| 20260504043712 | 6 | 285 | 0.0 | 0.0 | 0.00 | 0.00 | 0.00 | 84 | 1018.6 |
| 20260504043521 | 5 | 0 | 0.0 | 3.2 | 0.00 | 0.00 | 0.00 | 84 | 1016.5 |
| 20260504043039 | 5 | 0 | 0.0 | 3.2 | 0.00 | 0.00 | 0.00 | 85 | 1016.4 |
| 20260504042705 | 6 | 284 | 0.0 | 1.6 | 0.00 | 0.00 | 0.00 | 84 | 1018.4 |
| 20260504042521 | 5 | 258 | 0.0 | 3.2 | 0.00 | 0.00 | 0.00 | 84 | 1016.3 |
| 20260504042021 | 5 | 0 | 0.0 | 3.2 | 0.00 | 0.00 | 0.00 | 84 | 1016.3 |
| 20260504041707 | 5 | 207 | 0.0 | 1.6 | 0.00 | 0.00 | 0.00 | 84 | 1018.3 |
| 20260504041545 | 5 | 0 | 0.0 | 0.0 | 0.00 | 0.00 | 0.00 | 84 | 1016.3 |
| 20260504041023 | 5 | 0 | 0.0 | 1.6 | 0.00 | 0.00 | 0.00 | 84 | 1016.3 |
| 20260504040703 | 6 | 205 | 0.0 | 0.0 | 0.00 | 0.00 | 0.00 | 84 | 1018.4 |
| 20260504040522 | 5 | 0 | 0.0 | 1.6 | 0.00 | 0.00 | 0.00 | 84 | 1016.3 |
| 20260504040047 | 5 | 205 | 0.0 | 0.0 | 0.00 | 0.00 | 0.00 | 84 | 1016.4 |
| 20260504035522 | 5 | 0 | 0.0 | 0.0 | 0.00 | 0.00 | 0.00 | 84 | 1016.3 |
| 20260504035021 | 5 | 0 | 0.0 | 1.6 | 0.00 | 0.00 | 0.00 | 84 | 1016.4 |
| 20260504034547 | 5 | 0 | 0.0 | 1.6 | 0.00 | 0.00 | 0.00 | 83 | 1016.4 |
| 20260504034502 | 6 | 205 | 0.0 | 0.0 | 0.00 | 0.00 | 0.00 | 83 | 1018.4 |
| 20260504034021 | 5 | 0 | 0.0 | 1.6 | 0.00 | 0.00 | 0.00 | 83 | 1016.4 |
| 20260504033521 | 6 | 0 | 0.0 | 1.6 | 0.00 | 0.00 | 0.00 | 83 | 1016.4 |
| 20260504033041 | 6 | 0 | 0.0 | 1.6 | 0.00 | 0.00 | 0.00 | 83 | 1016.4 |
| 20260504032521 | 6 | 0 | 0.0 | 1.6 | 0.00 | 0.00 | 0.00 | 83 | 1016.5 |
| 20260504032456 | 6 | 205 | 0.0 | 0.0 | 0.00 | 0.00 | 0.00 | 83 | 1018.5 |
| 20260504032024 | 6 | 0 | 0.0 | 0.0 | 0.00 | 0.00 | 0.00 | 83 | 1016.4 |
| 20260504031543 | 6 | 0 | 0.0 | 1.6 | 0.00 | 0.00 | 0.00 | 82 | 1016.4 |
| 20260504031501 | 6 | 205 | 0.0 | 0.0 | 0.00 | 0.00 | 0.00 | 82 | 1018.4 |
| 20260504031021 | 6 | 0 | 0.0 | 1.6 | 0.00 | 0.00 | 0.00 | 82 | 1016.4 |
| 20260504030521 | 6 | 0 | 0.0 | 1.6 | 0.00 | 0.00 | 0.00 | 81 | 1016.4 |
| 20260504030443 | 6 | 205 | 0.0 | 0.0 | 0.00 | 0.00 | 0.00 | 81 | 1018.5 |
| 20260504030040 | 6 | 0 | 0.0 | 0.0 | 0.00 | 0.00 | 0.00 | 81 | 1016.4 |
| 20260504025521 | 6 | 0 | 0.0 | 0.0 | 0.00 | 0.00 | 0.00 | 81 | 1016.5 |
| 20260504025021 | 6 | 0 | 0.0 | 0.0 | 0.00 | 0.00 | 0.00 | 81 | 1016.5 |
| 20260504024537 | 6 | 0 | 0.0 | 0.0 | 0.00 | 0.00 | 0.00 | 81 | 1016.4 |
| 20260504024340 | 6 | 205 | 0.0 | 0.0 | 0.00 | 0.00 | 0.00 | 80 | 1018.4 |
| 20260504024021 | 6 | 0 | 0.0 | 1.6 | 0.00 | 0.00 | 0.00 | 81 | 1016.4 |
| 20260504023522 | 6 | 0 | 0.0 | 1.6 | 0.00 | 0.00 | 0.00 | 80 | 1016.4 |
| 20260504023318 | 7 | 205 | 0.0 | 0.0 | 0.00 | 0.00 | 0.00 | 80 | 1018.4 |
| 20260504023044 | 6 | 0 | 0.0 | 1.6 | 0.00 | 0.00 | 0.00 | 79 | 1016.4 |
| 20260504022522 | 7 | 0 | 0.0 | 0.0 | 0.00 | 0.00 | 0.00 | 79 | 1016.3 |
| 20260504022245 | 7 | 205 | 0.0 | 0.0 | 0.00 | 0.00 | 0.00 | 79 | 1018.3 |
| 20260504022021 | 7 | 0 | 0.0 | 0.0 | 0.00 | 0.00 | 0.00 | 78 | 1016.2 |
| 20260504021541 | 7 | 0 | 0.0 | 1.6 | 0.00 | 0.00 | 0.00 | 78 | 1016.2 |
| 20260504021226 | 7 | 205 | 0.0 | 0.0 | 0.00 | 0.00 | 0.00 | 78 | 1018.2 |
| 20260504021021 | 7 | 0 | 0.0 | 1.6 | 0.00 | 0.00 | 0.00 | 78 | 1016.2 |
| 20260504020521 | 7 | 0 | 0.0 | 1.6 | 0.00 | 0.00 | 0.00 | 77 | 1016.1 |
| 20260504020153 | 7 | 205 | 0.0 | 0.0 | 0.00 | 0.00 | 0.00 | 77 | 1018.1 |
| 20260504020042 | 7 | 0 | 0.0 | 1.6 | 0.00 | 0.00 | 0.00 | 76 | 1016.1 |
| 20260504015521 | 7 | 0 | 0.0 | 0.0 | 0.00 | 0.00 | 0.00 | 76 | 1016.0 |
| 20260504015130 | 8 | 205 | 0.0 | 0.0 | 0.00 | 0.00 | 0.00 | 75 | 1018.0 |
| 20260504015022 | 7 | 0 | 0.0 | 0.0 | 0.00 | 0.00 | 0.00 | 75 | 1016.0 |
| 20260504014538 | 8 | 0 | 0.0 | 0.0 | 0.00 | 0.00 | 0.00 | 74 | 1016.0 |
| 20260504014102 | 8 | 205 | 0.0 | 0.0 | 0.00 | 0.00 | 0.00 | 74 | 1017.9 |
| 20260504014021 | 8 | 0 | 0.0 | 0.0 | 0.00 | 0.00 | 0.00 | 74 | 1015.8 |
| 20260504013521 | 8 | 0 | 0.0 | 0.0 | 0.00 | 0.00 | 0.00 | 73 | 1015.8 |
| 20260504013116 | 8 | 205 | 0.0 | 0.0 | 0.00 | 0.00 | 0.00 | 72 | 1017.8 |
| 20260504013049 | 8 | 0 | 0.0 | 0.0 | 0.00 | 0.00 | 0.00 | 72 | 1015.8 |
| 20260504012521 | 8 | 0 | 0.0 | 1.6 | 0.00 | 0.00 | 0.00 | 71 | 1015.7 |
| 20260504012103 | 9 | 205 | 0.0 | 0.0 | 0.00 | 0.00 | 0.00 | 70 | 1017.7 |
| 20260504012021 | 8 | 0 | 0.0 | 1.6 | 0.00 | 0.00 | 0.00 | 70 | 1015.8 |
| 20260504011542 | 9 | 0 | 0.0 | 0.0 | 0.00 | 0.00 | 0.00 | 70 | 1015.7 |
| 20260504011102 | 9 | 205 | 0.0 | 0.0 | 0.00 | 0.00 | 0.00 | 69 | 1017.8 |
| 20260504011020 | 9 | 0 | 0.0 | 0.0 | 0.00 | 0.00 | 0.00 | 69 | 1015.6 |
| 20260504010520 | 9 | 0 | 0.0 | 0.0 | 0.00 | 0.00 | 0.00 | 68 | 1015.7 |
| 20260504010116 | 10 | 205 | 0.0 | 0.0 | 0.00 | 0.00 | 0.00 | 67 | 1017.8 |
| 20260504010042 | 10 | 0 | 0.0 | 0.0 | 0.00 | 0.00 | 0.00 | 67 | 1015.6 |
| 20260504005522 | 10 | 0 | 0.0 | 0.0 | 0.00 | 0.00 | 0.00 | 66 | 1015.7 |
| 20260504005116 | 10 | 205 | 0.0 | 0.0 | 0.00 | 0.00 | 0.00 | 65 | 1017.7 |
| 20260504005022 | 10 | 0 | 0.0 | 0.0 | 0.00 | 0.00 | 0.00 | 65 | 1015.6 |
| 20260504004542 | 10 | 0 | 0.0 | 1.6 | 0.00 | 0.00 | 0.00 | 63 | 1015.7 |
| 20260504004114 | 11 | 205 | 0.0 | 0.0 | 0.00 | 0.00 | 0.00 | 62 | 1017.6 |
| 20260504004022 | 11 | 0 | 0.0 | 1.6 | 0.00 | 0.00 | 0.00 | 62 | 1015.5 |
| 20260504003521 | 11 | 0 | 0.0 | 1.6 | 0.00 | 0.00 | 0.00 | 60 | 1015.4 |
| 20260504003049 | 12 | 205 | 0.0 | 0.0 | 0.00 | 0.00 | 0.00 | 59 | 1017.5 |
| 20260504003041 | 11 | 0 | 0.0 | 1.6 | 0.00 | 0.00 | 0.00 | 59 | 1015.4 |
| 20260504002521 | 12 | 0 | 0.0 | 1.6 | 0.00 | 0.00 | 0.00 | 58 | 1015.2 |
| 20260504002113 | 12 | 205 | 0.0 | 0.0 | 0.00 | 0.00 | 0.00 | 57 | 1017.2 |
| 20260504002021 | 12 | 0 | 0.0 | 1.6 | 0.00 | 0.00 | 0.00 | 56 | 1015.4 |
| 20260504001543 | 12 | 0 | 0.0 | 1.6 | 0.00 | 0.00 | 0.00 | 55 | 1015.2 |
| 20260504001048 | 13 | 205 | 0.0 | 0.0 | 0.00 | 0.00 | 0.00 | 54 | 1017.2 |
| 20260504001021 | 13 | 0 | 0.0 | 1.6 | 0.00 | 0.00 | 0.00 | 54 | 1015.2 |
| 20260504000526 | 13 | 0 | 0.0 | 3.2 | 0.00 | 0.00 | 0.00 | 52 | 1015.0 |
| 20260504000044 | 14 | 0 | 0.0 | 3.2 | 0.00 | 0.00 | 0.00 | 49 | 1015.1 |
| 20260503235521 | 15 | 205 | 0.0 | 3.2 | 0.00 | 0.00 | 0.00 | 46 | 1015.0 |
| 20260503235029 | 16 | 205 | 0.0 | 0.0 | 0.00 | 0.00 | 0.00 | 44 | 1017.1 |
| 20260503235021 | 15 | 0 | 0.0 | 4.8 | 0.00 | 0.00 | 0.00 | 44 | 1015.1 |
| 20260503234543 | 16 | 0 | 1.6 | 4.8 | 0.00 | 0.00 | 0.00 | 39 | 1015.1 |
| 20260503234033 | 16 | 174 | 1.6 | 11.3 | 0.00 | 0.00 | 0.00 | 37 | 1017.1 |
| 20260503234021 | 16 | 191 | 1.6 | 4.8 | 0.00 | 0.00 | 0.00 | 37 | 1015.1 |
| 20260503233521 | 16 | 175 | 1.6 | 14.5 | 0.00 | 0.00 | 0.00 | 36 | 1015.2 |
| 20260503233042 | 17 | 190 | 3.2 | 12.9 | 0.00 | 0.00 | 0.00 | 36 | 1017.2 |
| 20260503233040 | 16 | 197 | 4.8 | 14.5 | 0.00 | 0.00 | 0.00 | 35 | 1015.3 |
| 20260503232520 | 17 | 185 | 3.2 | 11.3 | 0.00 | 0.00 | 0.00 | 35 | 1015.2 |
| 20260503232021 | 17 | 185 | 4.8 | 14.5 | 0.00 | 0.00 | 0.00 | 34 | 1015.2 |
| 20260503231540 | 17 | 207 | 6.4 | 14.5 | 0.00 | 0.00 | 0.00 | 33 | 1015.0 |
| 20260503231022 | 17 | 210 | 4.8 | 12.9 | 0.00 | 0.00 | 0.00 | 33 | 1015.2 |
| 20260503230926 | 17 | 199 | 3.2 | 11.3 | 0.00 | 0.00 | 0.00 | 33 | 1017.2 |
| 20260503230522 | 17 | 203 | 3.2 | 12.9 | 0.00 | 0.00 | 0.00 | 32 | 1015.1 |
| 20260503230042 | 17 | 254 | 3.2 | 12.9 | 0.00 | 0.00 | 0.00 | 32 | 1015.2 |
| 20260503225917 | 17 | 186 | 4.8 | 11.3 | 0.00 | 0.00 | 0.00 | 31 | 1017.1 |
| 20260503225521 | 17 | 219 | 4.8 | 12.9 | 0.00 | 0.00 | 0.00 | 31 | 1015.2 |
| 20260503225021 | 17 | 187 | 3.2 | 11.3 | 0.00 | 0.00 | 0.00 | 31 | 1015.2 |
| 20260503224921 | 18 | 185 | 3.2 | 9.7 | 0.00 | 0.00 | 0.00 | 32 | 1017.2 |
| 20260503224535 | 17 | 189 | 4.8 | 11.3 | 0.00 | 0.00 | 0.00 | 30 | 1015.2 |
| 20260503224021 | 18 | 185 | 1.6 | 6.4 | 0.00 | 0.00 | 0.00 | 31 | 1015.3 |
| 20260503223927 | 18 | 208 | 1.6 | 14.5 | 0.00 | 0.00 | 0.00 | 30 | 1017.3 |
| 20260503223518 | 18 | 0 | 1.6 | 9.7 | 0.00 | 0.00 | 0.00 | 30 | 1015.2 |
| 20260503223035 | 18 | 187 | 3.2 | 16.1 | 0.00 | 0.00 | 0.00 | 28 | 1015.3 |
| 20260503222924 | 18 | 216 | 6.4 | 14.5 | 0.00 | 0.00 | 0.00 | 27 | 1017.3 |
| 20260503222521 | 18 | 227 | 8.0 | 16.1 | 0.00 | 0.00 | 0.00 | 29 | 1015.4 |
| 20260503222021 | 18 | 193 | 4.8 | 14.5 | 0.00 | 0.00 | 0.00 | 28 | 1015.5 |
| 20260503221929 | 18 | 202 | 3.2 | 11.3 | 0.00 | 0.00 | 0.00 | 30 | 1017.5 |
| 20260503221556 | 18 | 156 | 3.2 | 12.9 | 0.00 | 0.00 | 0.00 | 30 | 1015.5 |
| 20260503221022 | 18 | 253 | 4.8 | 12.9 | 0.00 | 0.00 | 0.00 | 28 | 1015.5 |
| 20260503220932 | 18 | 213 | 4.8 | 9.7 | 0.00 | 0.00 | 0.00 | 28 | 1017.6 |
| 20260503220521 | 18 | 120 | 6.4 | 12.9 | 0.00 | 0.00 | 0.00 | 29 | 1015.6 |
| 20260503220043 | 18 | 143 | 4.8 | 16.1 | 0.00 | 0.00 | 0.00 | 27 | 1015.6 |
| 20260503215941 | 19 | 106 | 4.8 | 12.9 | 0.00 | 0.00 | 0.00 | 28 | 1017.7 |
| 20260503215521 | 18 | 242 | 4.8 | 16.1 | 0.00 | 0.00 | 0.00 | 26 | 1015.6 |
| 20260503215020 | 18 | 197 | 6.4 | 16.1 | 0.00 | 0.00 | 0.00 | 28 | 1015.6 |
| 20260503215002 | 19 | 193 | 1.6 | 12.9 | 0.00 | 0.00 | 0.00 | 28 | 1017.7 |
| 20260503214542 | 18 | 0 | 1.6 | 9.7 | 0.00 | 0.00 | 0.00 | 29 | 1015.7 |
| 20260503214024 | 18 | 277 | 3.2 | 14.5 | 0.00 | 0.00 | 0.00 | 27 | 1015.8 |
| 20260503213940 | 18 | 203 | 4.8 | 12.9 | 0.00 | 0.00 | 0.00 | 27 | 1017.8 |
| 20260503213520 | 18 | 185 | 3.2 | 14.5 | 0.00 | 0.00 | 0.00 | 26 | 1015.8 |
| 20260503213045 | 19 | 194 | 4.8 | 14.5 | 0.00 | 0.00 | 0.00 | 28 | 1015.9 |
| 20260503212935 | 19 | 200 | 4.8 | 12.9 | 0.00 | 0.00 | 0.00 | 29 | 1017.9 |
| 20260503212523 | 19 | 278 | 4.8 | 16.1 | 0.00 | 0.00 | 0.00 | 27 | 1015.9 |
| 20260503212022 | 18 | 249 | 4.8 | 16.1 | 0.00 | 0.00 | 0.00 | 27 | 1015.8 |
| 20260503211912 | 19 | 215 | 4.8 | 12.9 | 0.00 | 0.00 | 0.00 | 26 | 1017.9 |
| 20260503211540 | 19 | 311 | 3.2 | 14.5 | 0.00 | 0.00 | 0.00 | 27 | 1015.9 |
| 20260503211021 | 18 | 330 | 4.8 | 12.9 | 0.00 | 0.00 | 0.00 | 27 | 1015.9 |
| 20260503210521 | 18 | 234 | 6.4 | 12.9 | 0.00 | 0.00 | 0.00 | 27 | 1015.8 |
| 20260503210039 | 18 | 268 | 1.6 | 14.5 | 0.00 | 0.00 | 0.00 | 29 | 1015.9 |
| 20260503205724 | 18 | 355 | 3.2 | 16.1 | 0.00 | 0.00 | 0.00 | 27 | 1018.0 |
| 20260503205521 | 18 | 326 | 4.8 | 14.5 | 0.00 | 0.00 | 0.00 | 30 | 1015.9 |
| 20260503205021 | 18 | 282 | 3.2 | 17.7 | 0.00 | 0.00 | 0.00 | 29 | 1016.0 |
| 20260503204727 | 18 | 23 | 4.8 | 16.1 | 0.00 | 0.00 | 0.00 | 28 | 1018.1 |
| 20260503204534 | 18 | 342 | 6.4 | 17.7 | 0.00 | 0.00 | 0.00 | 28 | 1016.1 |
| 20260503204020 | 18 | 195 | 3.2 | 14.5 | 0.00 | 0.00 | 0.00 | 28 | 1016.2 |
| 20260503203524 | 18 | 176 | 4.8 | 14.5 | 0.00 | 0.00 | 0.00 | 28 | 1016.1 |
| 20260503203044 | 18 | 244 | 4.8 | 14.5 | 0.00 | 0.00 | 0.00 | 29 | 1016.2 |
| 20260503202554 | 19 | 191 | 4.8 | 19.3 | 0.00 | 0.00 | 0.00 | 30 | 1018.2 |
| 20260503202523 | 18 | 199 | 4.8 | 14.5 | 0.00 | 0.00 | 0.00 | 30 | 1016.2 |
| 20260503202021 | 18 | 255 | 4.8 | 14.5 | 0.00 | 0.00 | 0.00 | 29 | 1016.3 |
| 20260503201558 | 18 | 301 | 4.8 | 19.3 | 0.00 | 0.00 | 0.00 | 28 | 1018.4 |
| 20260503201542 | 18 | 257 | 4.8 | 24.1 | 0.00 | 0.00 | 0.00 | 27 | 1016.3 |
| 20260503201020 | 18 | 251 | 4.8 | 24.1 | 0.00 | 0.00 | 0.00 | 28 | 1016.6 |
| 20260503200553 | 19 | 210 | 4.8 | 14.5 | 0.00 | 0.00 | 0.00 | 29 | 1018.6 |
| 20260503200520 | 18 | 160 | 4.8 | 17.7 | 0.00 | 0.00 | 0.00 | 31 | 1016.5 |
| 20260503200042 | 18 | 332 | 6.4 | 17.7 | 0.00 | 0.00 | 0.00 | 29 | 1016.5 |
| 20260503195616 | 18 | 334 | 4.8 | 17.7 | 0.00 | 0.00 | 0.00 | 29 | 1018.7 |
| 20260503195520 | 18 | 307 | 4.8 | 16.1 | 0.00 | 0.00 | 0.00 | 29 | 1016.7 |
| 20260503195020 | 18 | 1 | 6.4 | 19.3 | 0.00 | 0.00 | 0.00 | 29 | 1016.8 |
| 20260503194636 | 18 | 53 | 4.8 | 17.7 | 0.00 | 0.00 | 0.00 | 29 | 1018.9 |
| 20260503194543 | 18 | 331 | 4.8 | 19.3 | 0.00 | 0.00 | 0.00 | 30 | 1016.8 |
| 20260503194021 | 18 | 196 | 6.4 | 19.3 | 0.00 | 0.00 | 0.00 | 30 | 1016.8 |
| 20260503193520 | 18 | 154 | 4.8 | 16.1 | 0.00 | 0.00 | 0.00 | 27 | 1016.7 |
| 20260503193046 | 18 | 176 | 6.4 | 16.1 | 0.00 | 0.00 | 0.00 | 28 | 1017.0 |
| 20260503192542 | 18 | 222 | 3.2 | 12.9 | 0.00 | 0.00 | 0.00 | 30 | 1019.0 |
| 20260503192521 | 18 | 220 | 3.2 | 11.3 | 0.00 | 0.00 | 0.00 | 30 | 1017.0 |
| 20260503192018 | 18 | 237 | 3.2 | 11.3 | 0.00 | 0.00 | 0.00 | 28 | 1017.1 |
| 20260503191601 | 18 | 0 | 3.2 | 17.7 | 0.00 | 0.00 | 0.00 | 28 | 1017.0 |
| 20260503191533 | 18 | 85 | 4.8 | 12.9 | 0.00 | 0.00 | 0.00 | 28 | 1019.0 |
| 20260503191021 | 18 | 237 | 3.2 | 17.7 | 0.00 | 0.00 | 0.00 | 29 | 1017.1 |
| 20260503190544 | 18 | 239 | 4.8 | 12.9 | 0.00 | 0.00 | 0.00 | 29 | 1019.2 |
| 20260503190520 | 17 | 194 | 4.8 | 17.7 | 0.00 | 0.00 | 0.00 | 29 | 1017.2 |
| 20260503190035 | 17 | 260 | 3.2 | 17.7 | 0.00 | 0.00 | 0.00 | 29 | 1017.4 |
| 20260503185521 | 18 | 297 | 4.8 | 14.5 | 0.00 | 0.00 | 0.00 | 32 | 1017.4 |
| 20260503185518 | 18 | 137 | 1.6 | 14.5 | 0.00 | 0.00 | 0.00 | 32 | 1019.4 |
| 20260503185020 | 17 | 330 | 1.6 | 16.1 | 0.00 | 0.00 | 0.00 | 30 | 1017.4 |
| 20260503184541 | 17 | 210 | 4.8 | 16.1 | 0.00 | 0.00 | 0.00 | 30 | 1017.6 |
| 20260503184022 | 17 | 222 | 4.8 | 12.9 | 0.00 | 0.00 | 0.00 | 30 | 1017.7 |
| 20260503183525 | 17 | 347 | 6.4 | 22.5 | 0.00 | 0.00 | 0.00 | 30 | 1017.7 |
| 20260503183338 | 17 | 307 | 6.4 | 17.7 | 0.00 | 0.00 | 0.00 | 32 | 1019.7 |
| 20260503183041 | 17 | 359 | 9.7 | 22.5 | 0.00 | 0.00 | 0.00 | 33 | 1017.7 |
| 20260503182520 | 17 | 192 | 4.8 | 17.7 | 0.00 | 0.00 | 0.00 | 31 | 1017.8 |
| 20260503182342 | 17 | 287 | 3.2 | 12.9 | 0.00 | 0.00 | 0.00 | 31 | 1020.0 |
| 20260503182021 | 17 | 233 | 1.6 | 19.3 | 0.00 | 0.00 | 0.00 | 34 | 1018.0 |
| 20260503181548 | 17 | 151 | 4.8 | 19.3 | 0.00 | 0.00 | 0.00 | 30 | 1018.1 |
| 20260503181405 | 17 | 212 | 4.8 | 14.5 | 0.00 | 0.00 | 0.00 | 29 | 1020.2 |
| 20260503181021 | 17 | 326 | 4.8 | 17.7 | 0.00 | 0.00 | 0.00 | 31 | 1018.2 |
| 20260503180521 | 16 | 270 | 3.2 | 17.7 | 0.00 | 0.00 | 0.00 | 33 | 1018.2 |
| 20260503180042 | 17 | 235 | 8.0 | 22.5 | 0.00 | 0.00 | 0.00 | 32 | 1018.3 |
| 20260503175521 | 16 | 4 | 8.0 | 22.5 | 0.00 | 0.00 | 0.00 | 32 | 1018.3 |
| 20260503175255 | 17 | 341 | 8.0 | 20.9 | 0.00 | 0.00 | 0.00 | 30 | 1020.4 |
| 20260503175021 | 17 | 268 | 11.3 | 22.5 | 0.00 | 0.00 | 0.00 | 32 | 1018.4 |
| 20260503174544 | 16 | 3 | 4.8 | 16.1 | 0.00 | 0.00 | 0.00 | 34 | 1018.4 |
| 20260503174021 | 16 | 357 | 1.6 | 12.9 | 0.00 | 0.00 | 0.00 | 32 | 1018.3 |
| 20260503173521 | 16 | 233 | 4.8 | 14.5 | 0.00 | 0.00 | 0.00 | 35 | 1018.4 |
| 20260503173124 | 16 | 12 | 3.2 | 12.9 | 0.00 | 0.00 | 0.00 | 30 | 1020.4 |
| 20260503173041 | 16 | 69 | 3.2 | 14.5 | 0.00 | 0.00 | 0.00 | 30 | 1018.5 |
| 20260503172520 | 16 | 237 | 1.6 | 16.1 | 0.00 | 0.00 | 0.00 | 36 | 1018.4 |
| 20260503172104 | 16 | 163 | 4.8 | 14.5 | 0.00 | 0.00 | 0.00 | 32 | 1020.4 |
| 20260503172018 | 15 | 126 | 3.2 | 16.1 | 0.00 | 0.00 | 0.00 | 32 | 1018.5 |
| 20260503171541 | 15 | 225 | 3.2 | 14.5 | 0.00 | 0.00 | 0.00 | 32 | 1018.6 |
| 20260503171020 | 16 | 290 | 3.2 | 14.5 | 0.00 | 0.00 | 0.00 | 34 | 1018.8 |
| 20260503170524 | 16 | 0 | 4.8 | 24.1 | 0.00 | 0.00 | 0.00 | 36 | 1018.9 |